Weather History for Spirit of St Louis, MO

Change the Weather History Date:

Saturday, January 11, 2014

  Actual Average Record
Temperature  
Mean Temperature 40 °F -  
Max Temperature 48 °F 37 °F - (-1)
Min Temperature 32 °F 19 °F - (-1)
Degree Days  
Heating Degree Days 25    
Moisture  
Dew Point 34 °F    
Average Humidity 79    
Maximum Humidity 93    
Minimum Humidity 54    
Precipitation  
Precipitation 0.00 in - - ()
Sea Level Pressure  
Sea Level Pressure 29.70 in    
Wind  
Wind Speed 12 mph (West)    
Max Wind Speed 18 mph    
Max Gust Speed 25 mph    
Visibility 9 miles    
Events Rain    
Averages and records for this station are not official NWS values.
T = Trace of Precipitation, MM = Missing Value Source: NWS Daily Summary

Daily Weather History Graph

Daily Weather History Graph

Search for Another Location

Airport:

Trip Planner

Search our weather history database for the weather conditions in past years. The results will help you decide how hot, cold, wet, or windy it might be!

Date:

Astronomy

Jan. 11, 2014 Rise Set
Actual Time 7:20 AM CST 5:01 PM CST
Civil Twilight 6:50 AM CST 5:30 PM CST
Nautical Twilight 6:18 AM CST 6:03 PM CST
Astronomical Twilight 5:46 AM CST 6:35 PM CST
Moon 1:45 PM CST (1/11) 3:25 AM CST (1/11)
Length of Visible Light 10h 39m
Length of Day
9h 41m
Waxing Gibbous, 83% of the Moon is Illuminated
Jan 11
Waxing Gibbous
Jan 15
Full
Jan 23
Last Quarter
Jan 30
New
Feb 6
First Quarter

Hourly Weather History & Observations

Time (CST) Temp. Windchill Dew Point Humidity Pressure Visibility Wind Dir Wind Speed Gust Speed Precip Events Conditions
12:23 AM 46.4 °F 40.4 °F 42.8 °F 87% 29.53 in 10.0 mi WSW 13.8 mph - N/A   Mostly Cloudy
12:54 AM 45.0 °F 38.5 °F 42.1 °F 90% 29.55 in 10.0 mi West 13.8 mph 20.7 mph N/A   Overcast
1:02 AM 44.6 °F 36.9 °F 42.8 °F 93% 29.54 in 10.0 mi West 18.4 mph 25.3 mph N/A   Overcast
1:18 AM 44.6 °F 39.7 °F 41.0 °F 87% 29.55 in 10.0 mi West 9.2 mph - N/A   Overcast
1:54 AM 42.1 °F 36.1 °F 39.0 °F 89% 29.57 in 10.0 mi WSW 10.4 mph - N/A   Mostly Cloudy
2:54 AM 42.1 °F 36.1 °F 37.0 °F 82% 29.60 in 10.0 mi WSW 10.4 mph - N/A   Overcast
3:08 AM 42.8 °F 37.0 °F 35.6 °F 76% 29.58 in 10.0 mi WSW 10.4 mph - N/A   Overcast
3:15 AM 42.8 °F 37.0 °F 35.6 °F 76% 29.58 in 10.0 mi WSW 10.4 mph - N/A   Overcast
3:54 AM 39.9 °F 32.1 °F 35.1 °F 83% 29.60 in 10.0 mi WSW 13.8 mph 19.6 mph N/A   Overcast
4:39 AM 39.2 °F 31.6 °F 35.6 °F 87% 29.60 in 5.0 mi West 12.7 mph 20.7 mph 0.00 in Rain Light Rain
4:51 AM 37.4 °F 30.8 °F 35.6 °F 93% 29.61 in 5.0 mi West 9.2 mph - 0.00 in Rain Light Rain
4:54 AM 37.9 °F 32.1 °F 36.0 °F 93% 29.63 in 5.0 mi West 8.1 mph - 0.00 in Rain Light Rain
5:01 AM 37.4 °F 31.4 °F 35.6 °F 93% 29.62 in 7.0 mi West 8.1 mph - 0.00 in Rain Light Rain
5:08 AM 37.4 °F 29.8 °F 35.6 °F 93% 29.63 in 9.0 mi West 11.5 mph - 0.00 in Rain Light Rain
5:24 AM 37.4 °F 29.8 °F 35.6 °F 93% 29.64 in 10.0 mi West 11.5 mph - 0.00 in   Overcast
5:54 AM 37.9 °F 28.9 °F 33.1 °F 83% 29.66 in 10.0 mi WNW 16.1 mph 24.2 mph 0.00 in   Overcast
6:54 AM 37.0 °F 28.9 °F 32.0 °F 82% 29.68 in 10.0 mi West 12.7 mph 20.7 mph 0.00 in   Mostly Cloudy
7:46 AM 35.6 °F 28.0 °F 32.0 °F 87% 29.69 in 10.0 mi West 10.4 mph 18.4 mph N/A   Overcast
7:54 AM 36.0 °F 28.0 °F 32.0 °F 86% 29.70 in 10.0 mi West 11.5 mph - N/A   Overcast
8:54 AM 37.0 °F 29.8 °F 33.1 °F 86% 29.73 in 8.0 mi West 10.4 mph - N/A   Overcast
9:54 AM 39.0 °F 30.3 °F 33.1 °F 79% 29.75 in 10.0 mi West 16.1 mph 21.9 mph N/A   Mostly Cloudy
10:54 AM 39.9 °F 32.5 °F 33.1 °F 77% 29.76 in 10.0 mi West 12.7 mph 25.3 mph N/A   Scattered Clouds
11:54 AM 42.1 °F 33.6 °F 33.1 °F 70% 29.74 in 10.0 mi WSW 18.4 mph 24.2 mph N/A   Partly Cloudy
12:54 PM 45.0 °F 38.5 °F 34.0 °F 65% 29.72 in 10.0 mi West 13.8 mph - N/A   Clear
1:54 PM 46.9 °F - 32.0 °F 56% 29.73 in 10.0 mi West 13.8 mph - N/A   Scattered Clouds
2:54 PM 48.0 °F - 32.0 °F 54% 29.74 in 10.0 mi West 13.8 mph - N/A   Clear
3:54 PM 48.0 °F - 32.0 °F 54% 29.76 in 10.0 mi West 16.1 mph 21.9 mph N/A   Clear
4:54 PM 46.0 °F 40.2 °F 30.9 °F 56% 29.79 in 10.0 mi West 12.7 mph 21.9 mph N/A   Clear
5:54 PM 43.0 °F 36.0 °F 30.9 °F 62% 29.83 in 10.0 mi West 13.8 mph - N/A   Clear
6:54 PM 41.0 °F 35.8 °F 30.9 °F 67% 29.86 in 10.0 mi West 8.1 mph - N/A   Clear
7:54 PM 37.0 °F 31.0 °F 30.0 °F 76% 29.90 in 10.0 mi West 8.1 mph - N/A   Clear
8:54 PM 37.0 °F 31.0 °F 28.9 °F 73% 29.92 in 10.0 mi West 8.1 mph - N/A   Clear
9:54 PM 37.0 °F 32.4 °F 28.9 °F 73% 29.94 in 10.0 mi West 5.8 mph - N/A   Clear
10:54 PM 32.0 °F 25.6 °F 27.0 °F 82% 29.96 in 10.0 mi WSW 6.9 mph - N/A   Clear
11:54 PM 33.1 °F 27.7 °F 27.0 °F 78% 29.95 in 10.0 mi WSW 5.8 mph - N/A   Clear